[[{"header":{"parameterUnit":"m.s-1","parameterCategory":1,"la1":30.2991,"la2":30.254,"lo1":-89.0895,"lo2":-89.0444,"dy":0.0017,"dx":0.0017,"nx":28,"ny":28,"refTime":"2023-09-26T21:00:00:Z","depth":0,"parameterNumber":2,"parameterNumberName":"U-component_of_WINDS"},"data":[0,0,0,0,0,0,0,0,0,0,0,0,0,0,0,0,0,0,0,0,0,0,0,0,0,0,0,0,0,0,0,0,0,0,0,0,0,0,0,0,0,0,0,0,0,0,0,0,0,0,0,0,0,0,0,0,0,0,-0.5845,-0.5845,0,-0.5861,-0.5861,-0.5861,-0.5828,-0.5827,-0.5826,-0.5825,-0.5843,-0.5844,-0.5846,0,0,0,0,0,0,0,0,0,0,0,0,0,-0.5788,-0.579,-0.5845,-0.5845,-0.5845,-0.5861,-0.5861,-0.5861,-0.5828,-0.5827,-0.5826,-0.5825,-0.5843,-0.5844,-0.5846,0,0,0,0,0,0,0,0,0,0,0,0,0,-0.581,-0.579,-0.5845,-0.5831,-0.583,-0.5861,-0.5861,-0.5861,-0.5829,-0.5827,-0.5825,-0.5824,-0.5842,-0.5844,-0.5846,-0.5892,0,0,-0.5853,-0.5854,0,0,0,0,0,0,0,0,-0.5808,-0.5812,-0.5833,-0.5832,-0.5831,-0.5841,-0.5847,-0.5872,-0.5829,-0.5829,-0.5825,-0.5823,-0.5844,-0.5846,-0.5852,-0.5893,-0.5894,-0.5853,-0.5855,-0.5856,-0.5856,0,0,0,0,0,0,0,-0.5807,-0.5811,-0.5851,-0.5833,-0.5832,-0.5824,-0.5826,-0.5852,-0.5845,-0.5829,-0.5827,-0.5829,-0.5843,-0.585,-0.5852,-0.5894,-0.5853,-0.5855,-0.5857,-0.5857,-0.5974,-0.5976,0,0,0,0,0,0,-0.5807,-0.581,-0.5851,-0.5852,-0.5815,-0.5827,-0.5828,-0.5839,-0.5845,-0.5844,-0.583,-0.5827,-0.5847,-0.585,-0.5853,-0.5908,-0.5856,-0.5858,-0.5859,-0.5973,-0.5975,-0.5977,0,0,0,0,0,0,-0.5806,-0.5811,-0.585,-0.583,-0.5835,-0.5829,-0.5842,-0.584,-0.5848,-0.5846,-0.5845,-0.5839,-0.5846,-0.585,-0.5883,-0.5908,-0.5859,-0.5861,-0.597,-0.5973,-0.5976,-0.6018,0,0,0,0,0,0,-0.5804,-0.5811,-0.5828,-0.5831,-0.5836,-0.588,-0.5844,-0.5842,-0.5851,-0.5848,-0.5854,-0.5853,-0.5845,-0.588,-0.5885,-0.591,-0.5862,-0.5968,-0.5972,-0.5975,-0.6015,-0.6022,-0.6029,0,0,0,0,0,-0.5803,-0.584,-0.5829,-0.5834,-0.5857,-0.5881,-0.5884,-0.5873,-0.5854,-0.5871,-0.587,-0.5853,-0.5904,-0.5883,-0.5889,-0.5916,-0.5967,-0.5971,-0.5975,-0.6012,-0.6021,-0.6028,0,0,0,0,0,0,-0.5841,-0.584,-0.5828,-0.5867,-0.5874,-0.5875,-0.5897,-0.5883,-0.5897,-0.5893,-0.588,-0.5881,-0.5917,-0.5919,-0.5896,-0.5961,-0.5932,-0.5937,-0.5958,-0.5967,-0.5974,-0.5973,-0.5864,0,0,0,0,0,-0.5853,-0.5872,-0.5871,-0.5905,-0.5909,-0.5903,-0.5913,-0.5904,-0.5911,-0.5914,-0.5916,-0.5924,-0.5942,-0.5954,-0.5971,-0.6014,-0.6016,-0.6035,-0.6042,-0.6048,-0.6053,-0.6078,-0.6087,-0.599,-0.599,-0.599,0,0,-0.588,-0.5882,-0.5895,-0.5913,-0.5918,-0.5938,-0.5906,-0.5929,-0.5945,-0.5918,-0.595,-0.5951,-0.5959,-0.5998,-0.6015,-0.6001,-0.608,-0.6053,-0.6057,-0.606,-0.6083,-0.6092,-0.61,-0.5992,-0.5992,-0.5991,0,0,-0.594,-0.5943,-0.5973,-0.5978,-0.5985,-0.598,-0.5987,-0.599,-0.599,-0.6021,-0.6002,-0.602,-0.6051,-0.6059,-0.6066,-0.6128,-0.6114,-0.6134,-0.6171,-0.6195,-0.6203,-0.6209,-0.6233,-0.6242,-0.6139,-0.6139,-0.6139,0,-0.5973,-0.6003,-0.599,-0.6014,-0.6023,-0.5999,-0.603,-0.6035,-0.6048,-0.6055,-0.6038,-0.6077,-0.6081,-0.6122,-0.6137,-0.6143,-0.6152,-0.6134,-0.6202,-0.6209,-0.6215,-0.6238,-0.6247,-0.6142,-0.6141,-0.6141,-0.6141,0,-0.6044,-0.6065,-0.6088,-0.6101,-0.6112,-0.6139,-0.6131,-0.6143,-0.6133,-0.613,-0.6163,-0.6166,-0.6184,-0.6192,-0.6182,-0.6232,-0.6223,-0.6204,-0.6176,-0.6227,-0.6249,-0.6257,-0.6145,-0.6144,-0.6144,-0.6143,0,0,-0.613,-0.6134,-0.6143,-0.6149,-0.6155,-0.6171,-0.6197,-0.6213,-0.6226,-0.6235,-0.6258,-0.6284,-0.6267,-0.6276,-0.6267,-0.6287,-0.6338,-0.6267,-0.6267,-0.6282,-0.6395,-0.641,-0.642,-0.6328,-0.6329,-0.6331,-0.6395,0,-0.6191,-0.6237,-0.6225,-0.627,-0.629,-0.6267,-0.6291,-0.6297,-0.6295,-0.6312,-0.6309,-0.6329,-0.6305,-0.631,-0.6329,-0.6328,-0.6361,-0.6323,-0.6351,-0.6352,-0.6351,-0.6431,-0.6447,-0.6507,-0.6402,-0.6404,-0.6405,0,-0.6269,-0.6281,-0.6328,-0.6331,-0.6339,-0.636,-0.6374,-0.639,-0.6397,-0.6394,-0.6404,-0.6391,-0.6418,-0.6387,-0.6425,-0.6399,-0.6409,-0.641,-0.6412,-0.6416,-0.6383,-0.6439,-0.6526,-0.6536,-0.6417,-0.6416,-0.6415,0,-0.6329,-0.6357,-0.6389,-0.6394,-0.6398,-0.6414,-0.6416,-0.6421,-0.6432,-0.6444,-0.6451,-0.6466,-0.6475,-0.6488,-0.6479,-0.6458,-0.6519,-0.6487,-0.6519,-0.6519,-0.6534,-0.6534,-0.6627,-0.6538,-0.6537,-0.6537,-0.6537,0,-0.64,-0.643,-0.6416,-0.6437,-0.647,-0.6456,-0.649,-0.6489,-0.6494,-0.6514,-0.6495,-0.6514,-0.6501,-0.6519,-0.6513,-0.6546,-0.6549,-0.6549,-0.6547,-0.6552,-0.6552,-0.656,-0.6557,-0.654,-0.6539,-0.6539,-0.6538,0,-0.6474,-0.6466,-0.65,-0.65,-0.6501,-0.6526,-0.6527,-0.6546,-0.6541,-0.6567,-0.6572,-0.6566,-0.6587,-0.6579,-0.6601,-0.6597,-0.664,-0.6631,-0.6637,-0.6636,-0.6669,-0.6666,-0.6771,-0.6785,-0.6685,-0.6686,-0.6687,0,-0.6521,-0.6544,-0.6546,-0.6558,-0.6562,-0.6581,-0.6592,-0.6578,-0.659,-0.66,-0.6618,-0.6637,-0.6652,-0.6686,-0.6684,-0.6701,-0.6694,-0.673,-0.6697,-0.6701,-0.6697,-0.6697,-0.67,-0.6737,-0.6739,-0.6739,-0.674,0,-0.6605,-0.66,-0.6615,-0.663,-0.6643,-0.6654,-0.6663,-0.6674,-0.6661,-0.6676,-0.6697,-0.6708,-0.673,-0.675,-0.6765,-0.6768,-0.6753,-0.675,-0.6759,-0.6765,-0.6768,-0.6769,-0.6658,-0.6748,-0.6748,-0.6747,-0.6747,-0.6746,-0.6668,-0.6688,-0.6693,-0.6712,-0.6717,-0.6726,-0.6744,-0.6742,-0.6759,-0.6776,-0.6766,-0.6791,-0.6798,-0.6816,-0.6821,-0.6841,-0.6827,-0.6839,-0.6843,-0.6846,-0.6852,-0.6763,-0.6843,-0.6843,-0.6843,-0.6843,-0.6843,0,-0.6754,-0.6755,-0.6772,-0.6786,-0.68,-0.6783,-0.6792,-0.6806,-0.6828,-0.6835,-0.6849,-0.6874,-0.6892,-0.6891,-0.6909,-0.6925,-0.6918,-0.693,-0.693,-0.6931,-0.6862,-0.6854,-0.6935,-0.6935,-0.6935,-0.6935,-0.6935,-0.6935,-0.68,-0.6833,-0.6828,-0.6863,-0.6865,-0.6888,-0.6895,-0.6904,-0.6909,-0.6937,-0.6953,-0.6951,-0.6956,-0.6973,-0.699,-0.6989,-0.6997,-0.7012,-0.7009,-0.6945,-0.6936,-0.6927,-0.692,-0.7014,-0.7014,-0.7077,-0.7078,-0.7079]},{"header":{"parameterUnit":"m.s-1","parameterCategory":1,"la1":30.2991,"la2":30.254,"lo1":-89.0895,"lo2":-89.0444,"dy":0.0017,"dx":0.0017,"nx":28,"ny":28,"refTime":"2023-09-26T21:00:00:Z","depth":0,"parameterNumber":3,"parameterNumberName":"V-component_of_WINDS"},"data":[0,0,0,0,0,0,0,0,0,0,0,0,0,0,0,0,0,0,0,0,0,0,0,0,0,0,0,0,0,0,0,0,0,0,0,0,0,0,0,0,0,0,0,0,0,0,0,0,0,0,0,0,0,0,0,0,0,0,-2.5749,-2.575,0,-2.5789,-2.579,-2.579,-2.5785,-2.5785,-2.5784,-2.5783,-2.5821,-2.5823,-2.5824,0,0,0,0,0,0,0,0,0,0,0,0,0,-2.5666,-2.5667,-2.5749,-2.575,-2.575,-2.5789,-2.579,-2.579,-2.5785,-2.5785,-2.5784,-2.5783,-2.5821,-2.5823,-2.5824,0,0,0,0,0,0,0,0,0,0,0,0,0,-2.5703,-2.5668,-2.5749,-2.5752,-2.5753,-2.5789,-2.579,-2.5791,-2.5785,-2.5785,-2.5784,-2.5783,-2.582,-2.5822,-2.5825,-2.5859,0,0,-2.5832,-2.5833,0,0,0,0,0,0,0,0,-2.5701,-2.5707,-2.5751,-2.5752,-2.5753,-2.5781,-2.5774,-2.5813,-2.5786,-2.5773,-2.5783,-2.5782,-2.5808,-2.5812,-2.5821,-2.5861,-2.5862,-2.5832,-2.5834,-2.5835,-2.5835,0,0,0,0,0,0,0,-2.5699,-2.5705,-2.5765,-2.5752,-2.5753,-2.5751,-2.5755,-2.5782,-2.5796,-2.5774,-2.5774,-2.5779,-2.5809,-2.5819,-2.5822,-2.5863,-2.5832,-2.5834,-2.5836,-2.5837,-2.5934,-2.5935,0,0,0,0,0,0,-2.5696,-2.5703,-2.5764,-2.5766,-2.5724,-2.5754,-2.5758,-2.5773,-2.5795,-2.5798,-2.578,-2.5778,-2.5815,-2.5819,-2.5823,-2.5867,-2.5835,-2.5837,-2.5838,-2.5933,-2.5934,-2.5936,0,0,0,0,0,0,-2.5694,-2.5701,-2.5762,-2.5734,-2.5742,-2.5756,-2.5773,-2.5774,-2.5785,-2.58,-2.5802,-2.5788,-2.5815,-2.582,-2.5851,-2.5868,-2.5838,-2.584,-2.5932,-2.5933,-2.5935,-2.5952,0,0,0,0,0,0,-2.5692,-2.5701,-2.5714,-2.5735,-2.5744,-2.5789,-2.5774,-2.5776,-2.5789,-2.5788,-2.5808,-2.581,-2.5814,-2.5847,-2.5853,-2.5871,-2.5842,-2.593,-2.5932,-2.5934,-2.595,-2.5954,-2.5958,0,0,0,0,0,-2.5689,-2.5716,-2.5715,-2.5722,-2.5761,-2.579,-2.5795,-2.5801,-2.5791,-2.5804,-2.5814,-2.5809,-2.5865,-2.585,-2.5857,-2.5875,-2.5929,-2.5932,-2.5934,-2.5948,-2.5953,-2.5957,0,0,0,0,0,0,-2.5695,-2.5719,-2.5718,-2.5753,-2.577,-2.579,-2.5807,-2.5806,-2.5825,-2.5823,-2.5828,-2.5832,-2.5864,-2.5872,-2.5856,-2.591,-2.5895,-2.5899,-2.5904,-2.5909,-2.5912,-2.591,-2.5844,0,0,0,0,0,-2.5701,-2.5724,-2.5743,-2.5772,-2.5781,-2.5793,-2.5805,-2.5809,-2.5826,-2.5833,-2.5844,-2.586,-2.5882,-2.5895,-2.5915,-2.5951,-2.5956,-2.5967,-2.5971,-2.5974,-2.5977,-2.5998,-2.6004,-2.5944,-2.5944,-2.5944,0,0,-2.5713,-2.5729,-2.5743,-2.5774,-2.5788,-2.5811,-2.5799,-2.5823,-2.5841,-2.5836,-2.5867,-2.5876,-2.5894,-2.5928,-2.5943,-2.5936,-2.5995,-2.5977,-2.5979,-2.5981,-2.6001,-2.6007,-2.6012,-2.5946,-2.5945,-2.5945,0,0,-2.5747,-2.5761,-2.5788,-2.5802,-2.5824,-2.5831,-2.5838,-2.5858,-2.5865,-2.5896,-2.5893,-2.5913,-2.5949,-2.5963,-2.5975,-2.6016,-2.6013,-2.6022,-2.6042,-2.6062,-2.6067,-2.6071,-2.6087,-2.6093,-2.6025,-2.6025,-2.6025,0,-2.5759,-2.5795,-2.5802,-2.5828,-2.5842,-2.584,-2.5868,-2.5881,-2.5907,-2.5917,-2.5908,-2.5955,-2.5967,-2.6005,-2.6015,-2.6024,-2.6032,-2.602,-2.6066,-2.607,-2.6074,-2.609,-2.6096,-2.6026,-2.6026,-2.6026,-2.6026,0,-2.581,-2.5835,-2.5854,-2.5881,-2.5897,-2.5924,-2.5934,-2.5949,-2.5951,-2.5959,-2.5991,-2.6006,-2.603,-2.6039,-2.604,-2.6077,-2.6072,-2.6065,-2.605,-2.6081,-2.6096,-2.6101,-2.6028,-2.6028,-2.6027,-2.6027,0,0,-2.5849,-2.5881,-2.5888,-2.5901,-2.5925,-2.5945,-2.5971,-2.5996,-2.601,-2.6027,-2.605,-2.6081,-2.6076,-2.6089,-2.6091,-2.6109,-2.6142,-2.61,-2.61,-2.6108,-2.6186,-2.6193,-2.6199,-2.614,-2.6141,-2.6142,-2.6185,0,-2.5887,-2.5935,-2.5942,-2.5985,-2.6009,-2.6008,-2.6031,-2.6048,-2.6057,-2.6077,-2.6086,-2.6109,-2.6099,-2.6107,-2.6125,-2.6135,-2.6158,-2.6131,-2.6161,-2.6162,-2.6158,-2.6207,-2.6213,-2.6253,-2.6191,-2.6192,-2.6192,0,-2.5937,-2.5959,-2.6004,-2.6027,-2.6037,-2.6058,-2.6082,-2.6102,-2.6121,-2.6127,-2.6143,-2.6143,-2.617,-2.6154,-2.6192,-2.6174,-2.6186,-2.6193,-2.6194,-2.6198,-2.618,-2.6213,-2.6266,-2.6272,-2.6201,-2.62,-2.62,0,-2.5963,-2.6004,-2.6037,-2.6048,-2.6074,-2.6089,-2.6101,-2.6119,-2.6135,-2.6155,-2.6165,-2.6188,-2.6201,-2.6218,-2.6225,-2.6212,-2.6263,-2.6247,-2.6269,-2.6268,-2.628,-2.6279,-2.6337,-2.6286,-2.6286,-2.6286,-2.6285,0,-2.6005,-2.6033,-2.6049,-2.607,-2.6102,-2.6109,-2.614,-2.6151,-2.6168,-2.619,-2.6189,-2.621,-2.6217,-2.6239,-2.6244,-2.6276,-2.6281,-2.6286,-2.6287,-2.6287,-2.6287,-2.6296,-2.6294,-2.6287,-2.6287,-2.6287,-2.6286,0,-2.604,-2.6052,-2.6088,-2.6111,-2.6118,-2.614,-2.6159,-2.6179,-2.6188,-2.6216,-2.6223,-2.6237,-2.6263,-2.6271,-2.6301,-2.6305,-2.6342,-2.634,-2.6336,-2.6337,-2.6359,-2.6357,-2.6425,-2.6435,-2.6376,-2.6377,-2.6377,0,-2.6067,-2.6089,-2.6115,-2.6131,-2.6144,-2.6169,-2.6185,-2.6193,-2.621,-2.6234,-2.6251,-2.6277,-2.6298,-2.6339,-2.6352,-2.6375,-2.6375,-2.6397,-2.6378,-2.6378,-2.6377,-2.6376,-2.6379,-2.6401,-2.6401,-2.6402,-2.6402,0,-2.6114,-2.6119,-2.6143,-2.617,-2.6189,-2.621,-2.623,-2.6242,-2.6254,-2.6272,-2.63,-2.6316,-2.6349,-2.6375,-2.6399,-2.641,-2.6408,-2.6408,-2.6415,-2.6415,-2.6413,-2.6416,-2.6348,-2.6407,-2.6406,-2.6406,-2.6406,-2.6406,-2.6147,-2.6167,-2.619,-2.6217,-2.6233,-2.6252,-2.6272,-2.6285,-2.6308,-2.6336,-2.6339,-2.6369,-2.6388,-2.6422,-2.6434,-2.6457,-2.645,-2.6459,-2.6462,-2.6465,-2.6467,-2.6408,-2.6461,-2.6461,-2.6461,-2.6461,-2.6461,0,-2.6195,-2.621,-2.6235,-2.6264,-2.6285,-2.6283,-2.6305,-2.6323,-2.635,-2.6369,-2.6391,-2.6423,-2.6448,-2.6463,-2.6488,-2.6504,-2.6504,-2.6511,-2.651,-2.6513,-2.647,-2.6463,-2.6511,-2.6511,-2.6511,-2.6511,-2.651,-2.651,-2.6223,-2.6258,-2.6266,-2.6309,-2.6323,-2.6354,-2.6367,-2.6385,-2.6401,-2.6437,-2.6459,-2.6469,-2.6486,-2.6513,-2.6537,-2.654,-2.655,-2.6558,-2.6561,-2.6521,-2.6516,-2.6511,-2.6504,-2.6559,-2.656,-2.6602,-2.6602,-2.6602]}]]